Location: Radomski Observatory
(40.2854°N, 79.5145°W)
Time: 06:20:13
(UTC-04:00)

Amateur Radio Satellites - All Passes

Search period start: 28 July 2014 05:50
Search period end: 29 July 2014 05:50
Location: Radomski Observatory, 40.2854°N, 79.5145°W

Satellite Date Start Highest point End Downlink Frequencies (MHz)
Time Altitude Azimuth
TMSAT-1 28 Jul 06:01:16 06:04:31 17° 298° (WNW) 06:07:47 436.925 FM
Lituanica SAT-1 28 Jul 06:03:46 06:04:29 12° 224° (SW) 06:05:11 437.275 MHz beacon
ISS 28 Jul 06:11:31 06:14:37 33° 28° (NNE) 06:17:41 145.800 FM
JAS-2 28 Jul 06:14:23 06:16:54 13° 86° (E) 06:19:20 435.800 - 435.900 CW/SSB, 435.910 FM
PANSAT 28 Jul 06:16:38 06:18:05 12° 170° (S) 06:19:33 not established
STRAND 1 28 Jul 06:19:42 06:23:58 27° 66° (ENE) 06:28:14 ?
JAS-1B 28 Jul 06:51:40 06:55:22 13° 316° (NW) 06:58:57 435.800 - 435.900 CW/SSB
KITSAT 1 28 Jul 07:04:21 07:12:25 78° 117° (ESE) 07:20:32 435.175 FM
Hamsat 28 Jul 07:11:35 07:15:51 64° 101° (E) 07:20:09 145.90 MHz
MaSat-1 28 Jul 07:13:36 07:18:49 52° 60° (ENE) 07:23:45 437.345 MHz
Uosat F 28 Jul 07:25:07 07:26:38 11° 301° (WNW) 07:28:08 435.120 FM
AO-7 28 Jul 07:38:23 07:45:01 28° 304° (NW) 07:51:39 29.400 - 29.500 MHz
ISS 28 Jul 07:48:17 07:51:18 31° 225° (SW) 07:54:18 145.800 FM
Saudisat 1A 28 Jul 07:53:46 07:57:48 35° 115° (ESE) 08:01:50 436.775 MHz
PANSAT 28 Jul 07:55:29 07:57:33 14° 183° (S) 07:59:36 not established
JAS-2 28 Jul 07:56:53 08:02:54 76° 286° (WNW) 08:08:16 435.800 - 435.900 CW/SSB, 435.910 FM
STRAND 1 28 Jul 07:58:16 08:02:59 36° 262° (W) 08:07:43 ?
SO-67 28 Jul 08:18:50 08:22:16 56° 100° (E) 08:25:41 435.3500 MHz FM
Hamsat 28 Jul 08:49:40 08:51:17 12° 297° (WNW) 08:52:55 145.90 MHz
MaSat-1 28 Jul 08:51:55 08:55:43 20° 258° (WSW) 08:59:21 437.345 MHz
PCSat 28 Jul 08:54:50 08:57:14 13° 39° (NE) 08:59:39 145.825 MHz
KITSAT 1 28 Jul 09:01:55 09:08:39 28° 319° (NW) 09:15:26 435.175 FM
UKube-1 28 Jul 09:25:12 09:25:58 10° 90° (E) 09:26:44 145.840 MHz, 145.915 MHz
HO-68 28 Jul 09:25:33 09:31:22 26° 94° (E) 09:37:07 435.675 MHz FM
Saudisat 1A 28 Jul 09:33:43 09:37:26 26° 313° (NW) 09:41:11 436.775 MHz
JAS-2 28 Jul 09:45:22 09:46:43 11° 307° (NW) 09:48:02 435.800 - 435.900 CW/SSB, 435.910 FM
Sapphire 28 Jul 10:02:58 10:07:57 35° 53° (NE) 10:12:54 437.095 MHz 1200 baud AX-25 AFSK
Oscar 11 28 Jul 10:09:19 10:12:17 18° 93° (E) 10:15:15 145.825 FM, Beacon 2401.500 USB
PCSat 28 Jul 10:36:15 10:41:41 70° 60° (ENE) 10:47:04 145.825 MHz
UKube-1 28 Jul 10:58:16 11:02:36 66° 286° (WNW) 11:06:54 145.840 MHz, 145.915 MHz
KITSAT 1 28 Jul 11:05:54 11:07:28 11° 347° (NNW) 11:09:03 435.175 FM
HO-68 28 Jul 11:12:26 11:19:25 58° 292° (WNW) 11:26:21 435.675 MHz FM
Oscar 11 28 Jul 11:44:35 11:48:37 38° 289° (WNW) 11:52:38 145.825 FM, Beacon 2401.500 USB
Sapphire 28 Jul 11:46:30 11:51:18 33° 250° (WSW) 11:56:04 437.095 MHz 1200 baud AX-25 AFSK
FUNcube-1 28 Jul 12:03:35 12:07:43 64° 285° (WNW) 12:11:53 145.950 - 145.970 MHz USB
PCSat 28 Jul 12:21:23 12:24:27 15° 256° (WSW) 12:27:32 145.825 MHz
SO-50 28 Jul 12:26:27 12:29:55 23° 112° (ESE) 12:33:27 436.795 FM
Oscar 19 28 Jul 13:00:41 13:04:33 22° 65° (ENE) 13:08:26 437.125 CW, 437.150 USB
HO-68 28 Jul 13:04:00 13:05:37 11° 311° (NW) 13:07:14 435.675 MHz FM
KITSAT 1 28 Jul 13:04:25 13:07:31 12° 19° (NNE) 13:10:37 435.175 FM
AO-Echo 28 Jul 13:23:02 13:26:33 18° 63° (ENE) 13:30:05 ?
Oscar 16 28 Jul 13:27:50 13:32:36 41° 70° (ENE) 13:37:24 437.025 USB, Beacon 2401.1428
RS-15 28 Jul 13:34:51 13:45:27 52° 111° (ESE) 13:55:48 29.354 - 29.394 USB, Beacon 29.352 USB
ITAMSAT 1 28 Jul 13:47:42 13:52:08 29° 67° (ENE) 13:56:34 435.822 SSB
JAS-1B 28 Jul 13:50:23 13:58:07 33° 59° (ENE) 14:06:28 435.800 - 435.900 CW/SSB
TMSAT-1 28 Jul 14:04:07 14:06:18 13° 59° (ENE) 14:08:28 436.925 FM
SO-50 28 Jul 14:06:03 14:10:14 38° 309° (NW) 14:14:31 436.795 FM
AO-27 28 Jul 14:06:08 14:11:03 43° 70° (ENE) 14:15:59 436.795 MHz FM
Uribyol 2 28 Jul 14:06:43 14:11:39 46° 70° (ENE) 14:16:35 436.500 FM
Gurwin Techsat 1B 28 Jul 14:25:26 14:29:50 27° 66° (ENE) 14:34:14 435.225 FM
UOSAT-12 28 Jul 14:30:33 14:34:32 30° 113° (ESE) 14:38:36 437.025 FM, 437.400 FM
Oscar 19 28 Jul 14:38:43 14:43:35 44° 261° (W) 14:48:29 437.125 CW, 437.150 USB
AO-7 28 Jul 14:53:40 14:59:20 21° 52° (NE) 15:04:59 29.400 - 29.500 MHz
KITSAT 1 28 Jul 14:58:26 15:05:48 36° 47° (NE) 15:13:05 435.175 FM
AO-Echo 28 Jul 14:59:34 15:04:48 61° 259° (W) 15:10:05 ?
Oscar 16 28 Jul 15:08:06 15:12:06 23° 266° (W) 15:16:06 437.025 USB, Beacon 2401.1428
Uosat F 28 Jul 15:20:26 15:23:08 15° 61° (ENE) 15:25:49 435.120 FM
ITAMSAT 1 28 Jul 15:26:47 15:31:29 34° 263° (W) 15:36:14 435.822 SSB
JAS-1B 28 Jul 15:39:07 15:47:48 67° 259° (W) 15:57:37 435.800 - 435.900 CW/SSB
TMSAT-1 28 Jul 15:40:08 15:45:27 87° 257° (WSW) 15:50:47 436.925 FM
AO-27 28 Jul 15:46:41 15:50:43 23° 266° (W) 15:54:47 436.795 MHz FM
RS-15 28 Jul 15:47:16 15:57:51 49° 314° (NW) 16:08:22 29.354 - 29.394 USB, Beacon 29.352 USB
Uribyol 2 28 Jul 15:47:26 15:51:19 21° 266° (W) 15:55:13 436.500 FM
Gurwin Techsat 1B 28 Jul 16:04:42 16:09:36 38° 262° (W) 16:14:33 435.225 FM
OPAL 28 Jul 16:09:58 16:12:09 13° 93° (E) 16:14:20 ?
UOSAT-12 28 Jul 16:10:28 16:14:37 32° 311° (NW) 16:18:51 437.025 FM, 437.400 FM
Saudisat 1A 28 Jul 16:20:57 16:24:44 27° 48° (NE) 16:28:30 436.775 MHz
AO-7 28 Jul 16:42:36 16:50:58 87° 71° (ENE) 16:59:23 29.400 - 29.500 MHz
KITSAT 1 28 Jul 16:53:41 17:01:31 57° 247° (WSW) 17:09:19 435.175 FM
Uosat F 28 Jul 16:56:17 17:01:19 70° 258° (WSW) 17:06:22 435.120 FM
JAS-1B 28 Jul 17:36:22 17:40:10 13° 280° (W) 17:44:07 435.800 - 435.900 CW/SSB
OPAL 28 Jul 17:46:26 17:51:30 74° 288° (WNW) 17:56:37 ?
Saudisat 1A 28 Jul 18:00:23 18:04:21 33° 245° (WSW) 18:08:17 436.775 MHz
Hamsat 28 Jul 18:04:34 18:08:29 41° 72° (ENE) 18:12:26 145.90 MHz
JAS-2 28 Jul 18:05:51 18:13:16 50° 69° (ENE) 18:20:15 435.800 - 435.900 CW/SSB, 435.910 FM
RS-15 28 Jul 18:06:15 18:13:52 20° 345° (NNW) 18:21:31 29.354 - 29.394 USB, Beacon 29.352 USB
AO-7 28 Jul 18:39:15 18:44:40 19° 269° (W) 18:50:08 29.400 - 29.500 MHz
SO-67 28 Jul 18:52:26 18:54:50 18° 69° (ENE) 18:57:14 435.3500 MHz FM
Hamsat 28 Jul 19:42:09 19:44:39 16° 268° (W) 19:47:10 145.90 MHz
JAS-2 28 Jul 19:51:21 19:58:20 35° 265° (W) 20:05:01 435.800 - 435.900 CW/SSB, 435.910 FM
HO-68 28 Jul 19:54:58 19:59:54 20° 56° (ENE) 20:04:49 435.675 MHz FM
STRAND 1 28 Jul 20:08:52 20:14:01 80° 103° (ESE) 20:19:06 ?
RS-15 28 Jul 20:23:31 20:31:49 23° 22° (NNE) 20:40:13 29.354 - 29.394 USB, Beacon 29.352 USB
SO-67 28 Jul 20:24:52 20:27:44 24° 264° (W) 20:30:37 435.3500 MHz FM
SO-50 28 Jul 20:57:48 21:01:34 23° 45° (NE) 21:05:21 436.795 FM
Oscar 11 28 Jul 21:04:57 21:07:14 14° 64° (ENE) 21:09:32 145.825 FM, Beacon 2401.500 USB
MaSat-1 28 Jul 21:05:26 21:08:31 22° 102° (ESE) 21:11:57 437.345 MHz
HO-68 28 Jul 21:39:36 21:46:47 81° 255° (WSW) 21:53:59 435.675 MHz FM
STRAND 1 28 Jul 21:50:13 21:52:30 13° 300° (WNW) 21:54:47 ?
UKube-1 28 Jul 21:53:01 21:57:23 82° 257° (WSW) 22:01:47 145.840 MHz, 145.915 MHz
RS-15 28 Jul 22:36:07 22:47:02 62° 52° (NE) 22:58:19 29.354 - 29.394 USB, Beacon 29.352 USB
SO-50 28 Jul 22:37:46 22:42:23 50° 243° (WSW) 22:47:02 436.795 FM
Oscar 11 28 Jul 22:38:47 22:42:58 52° 260° (W) 22:47:12 145.825 FM, Beacon 2401.500 USB
MaSat-1 28 Jul 22:41:44 22:45:31 34° 304° (NW) 22:49:52 437.345 MHz
ISS 28 Jul 22:55:28 22:56:45 12° 129° (SE) 22:58:03 145.800 FM
FUNcube-1 28 Jul 22:59:18 23:03:39 87° 257° (WSW) 23:07:55 145.950 - 145.970 MHz USB
UOSAT-12 28 Jul 23:00:23 23:04:22 26° 47° (NE) 23:08:18 437.025 FM, 437.400 FM
HO-68 28 Jul 23:32:31 23:35:28 13° 272° (W) 23:38:26 435.675 MHz FM
ISS 29 Jul 00:29:42 00:33:02 74° 324° (NW) 00:36:24 145.800 FM
UOSAT-12 29 Jul 00:40:13 00:44:39 40° 244° (WSW) 00:49:00 437.025 FM, 437.400 FM
Sapphire 29 Jul 00:44:31 00:49:20 34° 110° (ESE) 00:54:11 437.095 MHz 1200 baud AX-25 AFSK
RS-15 29 Jul 00:49:03 00:58:53 39° 253° (WSW) 01:09:05 29.354 - 29.394 USB, Beacon 29.352 USB
PCSat 29 Jul 01:17:15 01:22:37 72° 116° (ESE) 01:28:02 145.825 MHz
AO-40 29 Jul 01:33:33 04:09:02 22° 123° (ESE) 05:23:46 Beacon 2401.320
Oscar 16 29 Jul 01:41:20 01:44:14 15° 91° (E) 01:47:09 437.025 USB, Beacon 2401.1428
ISS 29 Jul 02:07:53 02:10:13 17° 343° (NNW) 02:12:33 145.800 FM
AO-27 29 Jul 02:20:59 02:24:05 16° 91° (E) 02:27:09 436.795 MHz FM
Uribyol 2 29 Jul 02:21:10 02:24:23 17° 92° (E) 02:27:36 436.500 FM
Sapphire 29 Jul 02:27:49 02:32:43 34° 308° (NW) 02:37:38 437.095 MHz 1200 baud AX-25 AFSK
Gurwin Techsat 1B 29 Jul 02:45:29 02:45:36 10° 88° (E) 02:45:43 435.225 FM
Oscar 19 29 Jul 02:50:27 02:55:37 68° 102° (ESE) 03:00:46 437.125 CW, 437.150 USB
PCSat 29 Jul 03:02:48 03:06:36 19° 315° (NW) 03:10:26 145.825 MHz
AO-Echo 29 Jul 03:07:48 03:12:42 46° 99° (E) 03:17:23 ?
Oscar 16 29 Jul 03:18:54 03:24:00 63° 287° (WNW) 03:29:06 437.025 USB, Beacon 2401.1428
OPAL 29 Jul 03:23:46 03:27:34 23° 63° (ENE) 03:31:22 ?
JAS-1B 29 Jul 03:26:52 03:35:50 49° 96° (E) 03:43:29 435.800 - 435.900 CW/SSB
ITAMSAT 1 29 Jul 03:39:34 03:44:47 89° 104° (ESE) 03:49:57 435.822 SSB
ISS 29 Jul 03:46:34 03:48:00 12° 3° (N) 03:49:25 145.800 FM
TMSAT-1 29 Jul 03:56:47 04:01:44 39° 98° (E) 04:06:38 436.925 FM
AO-27 29 Jul 03:58:52 04:03:59 60° 288° (WNW) 04:09:03 436.795 MHz FM
Uribyol 2 29 Jul 03:59:10 04:04:13 57° 288° (WNW) 04:09:15 436.500 FM
Gurwin Techsat 1B 29 Jul 04:20:55 04:26:15 90° 101° (E) 04:31:34 435.225 FM
Oscar 19 29 Jul 04:31:25 04:34:22 16° 299° (WNW) 04:37:20 437.125 CW, 437.150 USB
AO-7 29 Jul 04:45:34 04:52:38 30° 96° (E) 04:59:37 29.400 - 29.500 MHz
AO-Echo 29 Jul 04:47:25 04:51:05 20° 296° (WNW) 04:54:40 ?
OPAL 29 Jul 05:01:31 05:06:11 42° 259° (W) 05:10:52 ?
Uosat F 29 Jul 05:04:47 05:09:26 37° 98° (E) 05:14:02 435.120 FM
JAS-1B 29 Jul 05:17:30 05:26:05 41° 298° (WNW) 05:33:36 435.800 - 435.900 CW/SSB
ITAMSAT 1 29 Jul 05:21:38 05:23:30 12° 301° (WNW) 05:25:21 435.822 SSB
ISS 29 Jul 05:22:53 05:25:40 23° 23° (NNE) 05:28:26 145.800 FM
KITSAT 1 29 Jul 05:28:00 05:33:57 23° 103° (ESE) 05:39:55 435.175 FM
TMSAT-1 29 Jul 05:37:06 05:41:26 26° 294° (WNW) 05:45:45 436.925 FM
